Location: Caltech
(34.1382°N, 118.1253°W)
Time: 18:22:23
(UTC-07:00)

Lacrosse 5 - Visible Passes

Search period start: 01 May 2016 00:00
Search period end: 11 May 2016 00:00
Orbit: 714 x 723 km, 57.0° (Epoch: 31 March)

Date Brightness Start Highest point End Pass type
(mag) Time Alt. Az. Time Alt. Az. Time Alt. Az.
01 May 3.8 02:29:32 26° NE 02:29:32 26° NE 02:31:49 10° NE visible
01 May 3.5 04:08:42 20° WNW 04:10:04 22° NW 04:14:01 10° NNE visible
02 May 4.8 01:37:55 10° ENE 01:37:55 10° ENE 01:37:56 10° ENE visible
02 May 3.0 03:17:05 36° NNW 03:17:05 36° NNW 03:21:08 10° NNE visible
03 May 3.6 02:25:25 29° NNE 02:25:25 29° NNE 02:27:58 10° NE visible
03 May 4.1 04:04:36 11° WNW 04:06:37 14° NNW 04:09:15 10° N visible
04 May 4.5 01:33:43 14° NE 01:33:43 14° NE 01:34:30 10° NE visible
04 May 3.6 03:12:53 23° NW 03:12:53 23° NW 03:16:46 10° NNE visible
05 May 3.7 02:21:07 27° N 02:21:07 27° N 02:23:51 10° NNE visible
06 May 4.3 01:29:19 18° NNE 01:29:19 18° NNE 01:30:40 10° NE visible
06 May 4.2 03:08:28 14° NW 03:09:17 14° NNW 03:12:00 10° N visible
07 May 4.0 02:16:36 21° NNW 02:16:36 21° NNW 02:19:28 10° NNE visible
08 May 4.2 01:24:40 21° NNE 01:24:40 21° NNE 01:26:33 10° NNE visible
09 May 4.5 00:32:41 14° NE 00:32:41 14° NE 00:33:22 10° NE visible
09 May 4.3 02:11:49 14° NW 02:11:58 15° NNW 02:14:46 10° N visible
10 May 4.2 01:19:44 20° NNW 01:19:44 20° NNW 01:22:12 10° NNE visible
